Overview Statistics Trail Chart Weather Telemetry Raw packets
 

This is the latest recevied weather packets stored in our database for station/object K7KAR-2. If no packets are shown the sender has not sent any weather packets the latest 10 day(s).

<< 1 2 3 4 5 6 >>
Time Temp. Humidity Pressure Rain* Wind** Luminosity Snow
1788612199 15.56° C 47% 1016.4 hPa 0 mm - 3 W/m² -
1788611899 15° C 48% 1016.5 hPa 0 mm - 2 W/m² -
1788611596 15° C 47% 1016.4 hPa 0 mm - 1 W/m² -
1788611295 15.56° C 46% 1016.6 hPa 0 mm - 0 W/m² -
1788610995 15° C 48% 1016.1 hPa 0 mm - 0 W/m² -
1788610690 12.78° C 53% 1015.7 hPa 0 mm - 0 W/m² -
1788610387 12.22° C 59% 1015.8 hPa 0 mm - 0 W/m² -
1788610085 12.78° C 56% 1015.7 hPa 0 mm - 0 W/m² -
1788609780 12.78° C 55% 1016.4 hPa 0 mm - 0 W/m² -
1788609475 12.78° C 55% 1015.9 hPa 0 mm - 0 W/m² -
1788609175 12.78° C 56% 1015.8 hPa 0 mm - 0 W/m² -
1788608874 12.78° C 55% 1015.8 hPa 0 mm - 0 W/m² -
1788608574 12.78° C 55% 1015.8 hPa 0 mm - 0 W/m² -
1788608273 12.22° C 55% 1016 hPa 0 mm - 0 W/m² -
1788607969 11.67° C 56% 1015.9 hPa 0 mm - 0 W/m² -
1788607664 11.67° C 57% 1015.8 hPa 0 mm - 0 W/m² -
1788607358 12.22° C 55% 1016 hPa 0 mm - 0 W/m² -
1788607053 12.22° C 54% 1015.7 hPa 0 mm - 0 W/m² -
1788606747 12.22° C 55% 1015.7 hPa 0 mm - 0 W/m² -
1788606447 13.33° C 53% 1015.6 hPa 0 mm - 0 W/m² -
1788606141 14.44° C 48% 1015.5 hPa 0 mm - 0 W/m² -
1788605837 13.89° C 49% 1015.4 hPa 0 mm - 0 W/m² -
1788605536 13.33° C 51% 1015.5 hPa 0 mm - 0 W/m² -
1788605230 13.89° C 50% 1015.3 hPa 0 mm - 0 W/m² -
1788604927 13.89° C 50% 1015.5 hPa 0 mm - 0 W/m² -

* Rain latest hour (hover to see other rain measurements)
** Current wind speed in m/s (hover to see current wind gust speed)